Other Public Products
Issued by NWS Charleston, SC

Current Version | Previous Version | Graphics & Text | Print | Product List | Glossary On
Versions: 1 2 3 4 5 6 7 8 9 10 11 12 13 14 15 16 17 18 19 20 21 22 23 24 25 26 27 28 29 30 31 32 33 34 35 36 37 38 39 40 41 42 43 44 45 46 47 48 49 50
863 FPUS82 KCHS 252312 OPUCHS TEST...KCHS/KSAV Gateway Observations...TEST National Weather Service Charleston SC 700 PM EDT WED APR 25 2018 NOTE: "fair" indicates few or no clouds below 12,000 feet with no significant weather and/or obstructions to visibility. SCZ050-WAZ558-NCZ071-TXZ119-213-PAZ071-DCZ001-FLZ074-172-MI076- NYZ176-178-MAZ016-IL014-TNZ027-NJZ106-GAZ044-MD014-260000- ...Gateway Observations for Charleston International... CITY SKY/WX TMP DP RH WIND PRES REMARKS Chas Airport FAIR 76 54 46 W9 29.78R Seattle PTSUNNY 75 45 34 N9 30.07F Charlotte FAIR 71 52 50 NW9 29.81R Dallas DFW CLOUDY 53 50 89 NW13 30.11R Dallas Love LGT RAIN 53 50 89 NW8 30.12S Philladelphia CLOUDY 65 59 81 N10 29.65S Wash National CLOUDY 64 56 75 NW8 29.69F Baltimore CLOUDY 64 58 80 NW13 29.67S Miami FAIR 82 57 42 W15 29.88S Detroit PTSUNNY 57 38 48 N13 29.91S Newark CLOUDY 57 55 93 NE6 29.67S FOG Laguardia CLOUDY 54 52 93 NE9 29.67F FOG J F K FOG 53 53 100 SE3 29.68F VSB 1/4 Boston Logan LGT RAIN 51 51 100 E7 29.77F FOG Ft. Lauderdale FAIR 79 68 69 SE14 29.87F Chicago O`Hare FAIR 47 28 47 NE13 30.05S Chicago Midway FAIR 47 29 49 NE12 30.05S Houston Bush CLOUDY 83 62 49 W6 29.95F Houston Hobby PTSUNNY 83 62 49 W9 29.94F Nashville CLOUDY 68 47 46 N7 29.95F Atlanta CLOUDY 66 53 63 NW9 29.92R $$ GAZ044-118-TXZ119-213-NCZ071-DCZ001-MDZ014-506-PAZ021-071-NJZ106- NYZ176-178-MAZ106-OHZ011-021-055-MIZ076-KYZ091-ILZ014-INZ047- MNZ060-ONZ431-260000- ...Gateway Observations for Savannah International... CITY SKY/WX TMP DP RH WIND PRES REMARKS Savannah Arpt PTSUNNY 75 54 47 NW9 29.82R Atlanta CLOUDY 66 53 63 NW9 29.92R Charlotte FAIR 71 52 50 NW9 29.81R Dallas DFW CLOUDY 53 50 89 NW13 30.11R Houston Bush CLOUDY 83 62 49 W6 29.95F Wash National CLOUDY 64 56 75 NW8 29.69F Wash Dulles CLOUDY 61 59 93 NW5 29.70S Baltimore CLOUDY 64 58 80 NW13 29.67S Philadelphia CLOUDY 65 59 81 N10 29.65S Newark CLOUDY 57 55 93 NE6 29.67S FOG Laguardia CLOUDY 54 52 93 NE9 29.67F FOG J F K FOG 53 53 100 SE3 29.68F VSB 1/4 Boston LGT RAIN 51 51 100 E7 29.77F FOG Pittsburg CLOUDY 51 47 86 NW16G24 29.85R Akron CLOUDY 49 41 74 N13 29.91R Cleveland PTSUNNY 47 41 80 N9 29.96S Cincinnati PTSUNNY 63 46 54 N10 29.91F Columbus PTSUNNY 59 45 59 N8 29.91S Detroit PTSUNNY 57 38 48 N13 29.91S Chicago O`Hare FAIR 47 28 47 NE13 30.05S Minneapolis PTSUNNY 59 24 26 SW6 30.03F Indianapolis PTSUNNY 60 39 45 NW13 29.95S Toronto Canada RAIN 46 45 93 NW20 29.77R FOG $$

USA.gov is the U.S. government's official web portal to all federal, state and local government web resources and services.